Regional Weather Roundup
Issued by NWS Charleston, SC

Current Version | Previous Version | Graphics & Text | Print | Product List | Glossary On
Versions: 1 2 3 4 5 6 7 8 9 10 11 12 13 14 15 16 17 18 19 20 21 22 23 24 25 26 27 28 29 30 31 32 33 34 35 36 37 38 39 40 41 42 43 44 45 46 47 48 49 50
000
ASUS42 KCHS 291527
RWRCHS

REGIONAL WEATHER ROUNDUP
NATIONAL WEATHER SERVICE CHARLESTON SC
1100 AM EDT SAT APR 29 2017

NOTE: "FAIR" INDICATES FEW OR NO CLOUDS BELOW 12,000 FEET WITH NO
SIGNIFICANT WEATHER AND/OR OBSTRUCTIONS TO VISIBILITY.

NOT ALL STATIONS ARE QUALITY CONTROLLED. USE DATA WITH CAUTION...
ESPECIALLY DEWPOINT OBSERVATIONS.

SCZ027-030-031-034>040-042>050-291600-
...SOUTHEAST SOUTH CAROLINA...

CITY           SKY/WX    TMP DP  RH WIND       PRES   REMARKS
N CHARLESTON   MOSUNNY   80  70  71 SW12      30.23F
WATERFRONT PRK   N/A     78  73  84 S9        30.22R
JOHNS ISLAND   CLOUDY    82  73  74 S13       30.23F
PINOPOLIS        N/A     81  72  74 S6G13     30.16S
MONCKS CORNER  PTSUNNY   82  68  61 S10       30.22S
SUMMERVILLE    FAIR      81  68  65 S8G16     30.22F
BEAUFORT MCAS  MOSUNNY   76  72  87 S8        30.22F
BEAUFORT ARPT  FAIR      79  72  78 S12G18    30.22S
HILTON HEAD IS MOSUNNY   81  73  78 S10       30.23F
WALTERBORO     PTSUNNY   81  68  65 S12       30.22F
ALLENDALE      FAIR      82  68  61 S10       30.19S

...SOUTHERN MIDLANDS AND PEE DEE...

CITY           SKY/WX    TMP DP  RH WIND       PRES   REMARKS
GEORGETOWN     FAIR      81  70  69 S12       30.25R
KINGSTREE      PTSUNNY   82  68  61 S8        30.22F
ORANGEBURG     MOSUNNY   81  70  69 S8        30.21F
BARNWELL         N/A     82  72  69 S8        30.21S
AIKEN          CLOUDY    75  70  83 SE9       30.25R
MANNING        FAIR      81  70  69 SW16      30.22S
COLUMBIA       PTSUNNY   82  68  62 S12       30.20S
SUMTER         SUNNY     81  69  68 S10       30.19S
FLORENCE       MOSUNNY   83  70  64 SW14      30.22S
MYRTLE BEACH   MOSUNNY   81  73  78 S8        30.25R
N MYRTLE BEACH MOSUNNY   78  73  84 S8        30.24S

$$

GAZ063-065-086>088-099>101-113>116-118-119-134>141-150-291600-
...SOUTHEAST GEORGIA...

CITY           SKY/WX    TMP DP  RH WIND       PRES   REMARKS
SAVANNAH ARPT  PTSUNNY   85  69  58 S14       30.21S
HUNTER AAF     MOSUNNY   82  76  82 S9        30.19F HX  90
FORT STEWART   CLOUDY    84  68  58 SE10      30.18F
STATESBORO     MOSUNNY   85  69  58 S9        30.20S
SYLVANIA       CLOUDY   N/A N/A N/A SW7       30.21F
CLAXTON        FAIR      84  75  76 E8        30.19F HX  92

...CSRA...CENTRAL AND FAR SOUTHEAST GEORGIA...

CITY           SKY/WX    TMP DP  RH WIND       PRES   REMARKS
THOMSON        CLOUDY    78  70  78 SW9       30.24R
AUGUSTA-BUSH   CLOUDY    81  71  71 S9        30.18S
AUGUSTA-DANIEL CLOUDY    79  69  71 S9        30.20S
SWAINSBORO     CLOUDY    81  70  69 S8        30.20S
VIDALIA        PTSUNNY   82  72  69 S6        30.19S
EASTMAN        PTSUNNY   84  62  47 S9        30.20S
HAZLEHURST     FAIR      85  72  65 S6        30.17F HX  91
ALMA           MOSUNNY   83  71  67 SE12      30.19R
WAYCROSS       PTSUNNY   86  74  66 S10       30.19S HX  94
JESUP          PTSUNNY   84  68  58 S3        30.20F
BAXLEY         FAIR      84  73  70 S7        30.19S HX  91
BRUNSWICK      CLOUDY    82  73  74 S14G20    30.22R
SAINT SIMONS   SUNNY     81  72  74 SE12      30.22R

$$

SCZ027-028-034-036>038-045-046-048>050-GAZ119-141-291600-
...LAKE AND SUPPLEMENTAL COASTAL OBSERVATIONS...

STATION/POSITION TIME  TEMP    WIND        PRES    WAVE   SWELL
                       AIR SEA DIR/SP/G            HT/PER HT/PER/DIR
                 (UTC) (F)     (DEG/KT/KT) (MB)    (FT/S) (FT/S/D)
WINYAH BAY       1445   80     190/ 11     1024.0S
LAKE MURRAY      1450   76     170/  9/ 10 1022.0S
ACE BASIN NERRS  1445   80     170/  2     1023.0F
FORT PULASKI     1500   79 76  190/  8/ 13 1023.9
SAPELO ISLAND    1430   79     170/ 11     1023.0S

$$

ANZ835-935-AMZ111-154-330-350-352-354-370-450-454-472-291600-
...C-MAN AND BUOY OBSERVATIONS...

STATION/POSITION TIME  TEMP    WIND        PRES    WAVE   SWELL
                       AIR SEA DIR/SP/G            HT/PER HT/PER/DIR
                 (UTC) (F)     (DEG/KT/KT) (MB)    (FT/S) (FT/S/D)
BUOY 41004       1510   76 75  180/  8/ 10 1024.0
BUOY 41008       1450   74 73  120/  6/  6 1023.2R   4/ 6   3/130/ 6
FOLLY BEACH CMAN 1500   78     180/  4/  5 1024.6F
CAPERS NEARSHORE 1508   76 74  190/  6/  8 1023.8F
FRIPP NEARSHORE  1508   75 74  140/  6/  8 1023.4F


STATION/POSITION TIME  TEMP    WIND        PRES    WAVE   SWELL
                       AIR SEA DIR/SP/G            HT/PER HT/PER/DIR
                 (UTC) (F)     (DEG/KT/KT) (MB)    (FT/S) (FT/S/D)
5E ST. MARYS GA  1500      74                N/A     3/ 5
FRYING PAN BUOY  1510   75 73  190/  6/  8 1024.5
BUOY 41025       1450   77 76  230/ 14/ 17 1024.0R   4/ 6   2/120/ 8
CAPE LOOKOUT NC  1500   76     220/  8/ 11 1023.8R
BUOY 41002       1450   75 76  150/ 10/ 12 1026.0R   3/ 7   3/120/ 7
BUOY 41010       1510   78 79  120/ 14/ 17 1023.5
ST AUGUSTINE FL  1500   76 77  140/ 14/ 16 1023.6R


$$




USA.gov is the U.S. government's official web portal to all federal, state and local government web resources and services.